Year,Month,Day,Hour,Minute,Value (Times are PST for temperature in C)
2021,08,13,00,00,20.70
2021,08,13,00,01,20.70
2021,08,13,00,02,20.70
2021,08,13,00,03,20.70
2021,08,13,00,04,20.70
2021,08,13,00,05,20.70
2021,08,13,00,06,20.60
2021,08,13,00,07,20.60
2021,08,13,00,08,20.60
2021,08,13,00,09,20.60
2021,08,13,00,10,20.60
2021,08,13,00,11,20.50
2021,08,13,00,12,20.50
2021,08,13,00,13,20.50
2021,08,13,00,14,20.50
2021,08,13,00,15,20.40
2021,08,13,00,16,20.40
2021,08,13,00,17,20.40
2021,08,13,00,18,20.40
2021,08,13,00,19,20.50
2021,08,13,00,20,20.50
2021,08,13,00,21,20.50
2021,08,13,00,22,20.50
2021,08,13,00,23,20.50
2021,08,13,00,24,20.40
2021,08,13,00,25,20.40
2021,08,13,00,26,20.40
2021,08,13,00,27,20.40
2021,08,13,00,28,20.30
2021,08,13,00,29,20.30
2021,08,13,00,30,20.30
2021,08,13,00,31,20.30
2021,08,13,00,32,20.30
2021,08,13,00,33,20.30
2021,08,13,00,34,20.30
2021,08,13,00,35,20.30
2021,08,13,00,36,20.30
2021,08,13,00,37,20.30
2021,08,13,00,38,20.30
2021,08,13,00,39,20.30
2021,08,13,00,40,20.30
2021,08,13,00,41,20.30
2021,08,13,00,42,20.30
2021,08,13,00,43,20.30
2021,08,13,00,44,20.20
2021,08,13,00,45,20.20
2021,08,13,00,46,20.20
2021,08,13,00,47,20.20
2021,08,13,00,48,20.20
2021,08,13,00,49,20.20
2021,08,13,00,50,20.20
2021,08,13,00,51,20.20
2021,08,13,00,52,20.20
2021,08,13,00,53,20.20
2021,08,13,00,54,20.20
2021,08,13,00,55,20.20
2021,08,13,00,56,20.20
2021,08,13,00,57,20.20
2021,08,13,00,58,20.20
2021,08,13,00,59,20.20
2021,08,13,01,00,20.10
2021,08,13,01,01,20.10
2021,08,13,01,02,20.10
2021,08,13,01,03,20.10
2021,08,13,01,04,20.10
2021,08,13,01,05,20.10
2021,08,13,01,06,20.10
2021,08,13,01,07,20.10
2021,08,13,01,08,20.10
2021,08,13,01,09,20.10
2021,08,13,01,10,20.10
2021,08,13,01,11,20.10
2021,08,13,01,12,20.10
2021,08,13,01,13,20.00
2021,08,13,01,14,20.00
2021,08,13,01,15,19.90
2021,08,13,01,16,19.90
2021,08,13,01,17,20.00
2021,08,13,01,18,20.00
2021,08,13,01,19,20.00
2021,08,13,01,20,20.00
2021,08,13,01,21,19.90
2021,08,13,01,22,19.90
2021,08,13,01,23,19.90
2021,08,13,01,24,19.90
2021,08,13,01,25,19.90
2021,08,13,01,26,19.90
2021,08,13,01,27,19.90
2021,08,13,01,28,19.90
2021,08,13,01,29,19.90
2021,08,13,01,30,19.90
2021,08,13,01,31,19.90
2021,08,13,01,32,19.90
2021,08,13,01,33,19.90
2021,08,13,01,34,19.90
2021,08,13,01,35,19.90
2021,08,13,01,36,19.80
2021,08,13,01,37,19.80
2021,08,13,01,38,19.80
2021,08,13,01,39,19.80
2021,08,13,01,40,19.80
2021,08,13,01,41,19.80
2021,08,13,01,42,19.80
2021,08,13,01,43,19.80
2021,08,13,01,44,19.80
2021,08,13,01,45,19.80
2021,08,13,01,46,19.80
2021,08,13,01,47,19.80
2021,08,13,01,48,19.80
2021,08,13,01,49,19.80
2021,08,13,01,50,19.80
2021,08,13,01,51,19.80
2021,08,13,01,52,19.70
2021,08,13,01,53,19.70
2021,08,13,01,54,19.70
2021,08,13,01,55,19.70
2021,08,13,01,56,19.70
2021,08,13,01,57,19.70
2021,08,13,01,58,19.70
2021,08,13,01,59,19.70
2021,08,13,02,00,19.60
2021,08,13,02,01,19.60
2021,08,13,02,02,19.60
2021,08,13,02,03,19.60
2021,08,13,02,04,19.60
2021,08,13,02,05,19.60
2021,08,13,02,06,19.60
2021,08,13,02,07,19.60
2021,08,13,02,08,19.60
2021,08,13,02,09,19.60
2021,08,13,02,10,19.60
2021,08,13,02,11,19.60
2021,08,13,02,12,19.70
2021,08,13,02,13,19.70
2021,08,13,02,14,19.70
2021,08,13,02,15,19.60
2021,08,13,02,16,19.60
2021,08,13,02,17,19.50
2021,08,13,02,18,19.50
2021,08,13,02,19,19.40
2021,08,13,02,20,19.40
2021,08,13,02,21,19.40
2021,08,13,02,22,19.40
2021,08,13,02,23,19.30
2021,08,13,02,24,19.30
2021,08,13,02,25,19.30
2021,08,13,02,26,19.30
2021,08,13,02,27,19.30
2021,08,13,02,28,19.30
2021,08,13,02,29,19.20
2021,08,13,02,30,19.20
2021,08,13,02,31,19.20
2021,08,13,02,32,19.20
2021,08,13,02,33,19.20
2021,08,13,02,34,19.20
2021,08,13,02,35,19.10
2021,08,13,02,36,19.10
2021,08,13,02,37,19.10
2021,08,13,02,38,19.10
2021,08,13,02,39,19.00
2021,08,13,02,40,19.00
2021,08,13,02,41,19.00
2021,08,13,02,42,19.00
2021,08,13,02,43,19.00
2021,08,13,02,44,19.00
2021,08,13,02,45,19.00
2021,08,13,02,46,19.10
2021,08,13,02,47,19.00
2021,08,13,02,48,19.00
2021,08,13,02,49,19.00
2021,08,13,02,50,18.90
2021,08,13,02,51,18.90
2021,08,13,02,52,18.90
2021,08,13,02,53,18.80
2021,08,13,02,54,18.80
2021,08,13,02,55,18.80
2021,08,13,02,56,18.80
2021,08,13,02,57,18.80
2021,08,13,02,58,18.80
2021,08,13,02,59,18.80
2021,08,13,03,00,18.80
2021,08,13,03,01,18.80
2021,08,13,03,02,18.80
2021,08,13,03,03,18.80
2021,08,13,03,04,18.70
2021,08,13,03,05,18.70
2021,08,13,03,06,18.70
2021,08,13,03,07,18.60
2021,08,13,03,08,18.60
2021,08,13,03,09,18.50
2021,08,13,03,10,18.50
2021,08,13,03,11,18.50
2021,08,13,03,12,18.40
2021,08,13,03,13,18.40
2021,08,13,03,14,18.30
2021,08,13,03,15,18.30
2021,08,13,03,16,18.30
2021,08,13,03,17,18.30
2021,08,13,03,18,18.30
2021,08,13,03,19,18.40
2021,08,13,03,20,18.40
2021,08,13,03,21,18.50
2021,08,13,03,22,18.50
2021,08,13,03,23,18.50
2021,08,13,03,24,18.50
2021,08,13,03,25,18.60
2021,08,13,03,26,18.60
2021,08,13,03,27,18.60
2021,08,13,03,28,18.50
2021,08,13,03,29,18.50
2021,08,13,03,30,18.40
2021,08,13,03,31,18.40
2021,08,13,03,32,18.40
2021,08,13,03,33,18.40
2021,08,13,03,34,18.40
2021,08,13,03,35,18.40
2021,08,13,03,36,18.40
2021,08,13,03,37,18.40
2021,08,13,03,38,18.30
2021,08,13,03,39,18.30
2021,08,13,03,40,18.30
2021,08,13,03,41,18.30
2021,08,13,03,42,18.20
2021,08,13,03,43,18.10
2021,08,13,03,44,18.10
2021,08,13,03,45,18.10
2021,08,13,03,46,18.10
2021,08,13,03,47,18.10
2021,08,13,03,48,18.00
2021,08,13,03,49,18.00
2021,08,13,03,50,18.00
2021,08,13,03,51,18.00
2021,08,13,03,52,18.00
2021,08,13,03,53,18.00
2021,08,13,03,54,18.00
2021,08,13,03,55,18.00
2021,08,13,03,56,18.00
2021,08,13,03,57,18.00
2021,08,13,03,58,18.10
2021,08,13,03,59,18.10
2021,08,13,04,00,18.10
2021,08,13,04,01,18.10
2021,08,13,04,02,18.10
2021,08,13,04,03,18.10
2021,08,13,04,04,18.10
2021,08,13,04,05,18.10
2021,08,13,04,06,18.10
2021,08,13,04,07,18.10
2021,08,13,04,08,18.20
2021,08,13,04,09,18.30
2021,08,13,04,10,18.30
2021,08,13,04,11,18.30
2021,08,13,04,12,18.30
2021,08,13,04,13,18.30
2021,08,13,04,14,18.30
2021,08,13,04,15,18.30
2021,08,13,04,16,18.20
2021,08,13,04,17,18.20
2021,08,13,04,18,18.20
2021,08,13,04,19,18.20
2021,08,13,04,20,18.20
2021,08,13,04,21,18.10
2021,08,13,04,22,18.10
2021,08,13,04,23,18.10
2021,08,13,04,24,18.10
2021,08,13,04,25,18.20
2021,08,13,04,26,18.20
2021,08,13,04,27,18.20
2021,08,13,04,28,18.20
2021,08,13,04,29,18.20
2021,08,13,04,30,18.30
2021,08,13,04,31,18.20
2021,08,13,04,32,18.20
2021,08,13,04,33,18.20
2021,08,13,04,34,18.20
2021,08,13,04,35,18.10
2021,08,13,04,36,18.10
2021,08,13,04,37,18.00
2021,08,13,04,38,18.00
2021,08,13,04,39,17.90
2021,08,13,04,40,17.90
2021,08,13,04,41,17.90
2021,08,13,04,42,17.90
2021,08,13,04,43,17.90
2021,08,13,04,44,17.80
2021,08,13,04,45,17.90
2021,08,13,04,46,17.90
2021,08,13,04,47,17.90
2021,08,13,04,48,18.00
2021,08,13,04,49,18.10
2021,08,13,04,50,18.10
2021,08,13,04,51,18.10
2021,08,13,04,52,18.00
2021,08,13,04,53,18.00
2021,08,13,04,54,18.00
2021,08,13,04,55,17.90
2021,08,13,04,56,17.90
2021,08,13,04,57,17.90
2021,08,13,04,58,17.80
2021,08,13,04,59,17.80
2021,08,13,05,00,17.80
2021,08,13,05,01,17.80
2021,08,13,05,02,17.80
2021,08,13,05,03,17.80
2021,08,13,05,04,17.80
2021,08,13,05,05,17.80
2021,08,13,05,06,17.80
2021,08,13,05,07,17.80
2021,08,13,05,08,17.80
2021,08,13,05,09,17.90
2021,08,13,05,10,17.90
2021,08,13,05,11,17.90
2021,08,13,05,12,17.80
2021,08,13,05,13,17.80
2021,08,13,05,14,17.80
2021,08,13,05,15,17.80
2021,08,13,05,16,17.80
2021,08,13,05,17,17.80
2021,08,13,05,18,17.70
2021,08,13,05,19,17.70
2021,08,13,05,20,17.70
2021,08,13,05,21,17.70
2021,08,13,05,22,17.70
2021,08,13,05,23,17.70
2021,08,13,05,24,17.70
2021,08,13,05,25,17.70
2021,08,13,05,26,17.70
2021,08,13,05,27,17.70
2021,08,13,05,28,17.80
2021,08,13,05,29,17.80
2021,08,13,05,30,17.80
2021,08,13,05,31,17.80
2021,08,13,05,32,17.80
2021,08,13,05,33,17.80
2021,08,13,05,34,17.90
2021,08,13,05,35,17.90
2021,08,13,05,36,18.00
2021,08,13,05,37,18.00
2021,08,13,05,38,18.10
2021,08,13,05,39,18.10
2021,08,13,05,40,18.10
2021,08,13,05,41,18.20
2021,08,13,05,42,18.20
2021,08,13,05,43,18.20
2021,08,13,05,44,18.30
2021,08,13,05,45,18.30
2021,08,13,05,46,18.30
2021,08,13,05,47,18.30
2021,08,13,05,48,18.30
2021,08,13,05,49,18.30
2021,08,13,05,50,18.30
2021,08,13,05,51,18.30
2021,08,13,05,52,18.30
2021,08,13,05,53,18.30
2021,08,13,05,54,18.30
2021,08,13,05,55,18.30
2021,08,13,05,56,18.30
2021,08,13,05,57,18.20
2021,08,13,05,58,18.30
2021,08,13,05,59,18.30
2021,08,13,06,00,18.20
2021,08,13,06,01,18.20
2021,08,13,06,02,18.20
2021,08,13,06,03,18.10
2021,08,13,06,04,18.10
2021,08,13,06,05,18.00
2021,08,13,06,06,18.00
2021,08,13,06,07,17.90
2021,08,13,06,08,17.90
2021,08,13,06,09,17.80
2021,08,13,06,10,17.80
2021,08,13,06,11,17.70
2021,08,13,06,12,17.70
2021,08,13,06,13,17.70
2021,08,13,06,14,17.70
2021,08,13,06,15,17.60
2021,08,13,06,16,17.60
2021,08,13,06,17,17.60
2021,08,13,06,18,17.50
2021,08,13,06,19,17.50
2021,08,13,06,20,17.40
2021,08,13,06,21,17.40
2021,08,13,06,22,17.40
2021,08,13,06,23,17.40
2021,08,13,06,24,17.40
2021,08,13,06,25,17.30
2021,08,13,06,26,17.30
2021,08,13,06,27,17.30
2021,08,13,06,28,17.30
2021,08,13,06,29,17.30
2021,08,13,06,30,17.30
2021,08,13,06,31,17.20
2021,08,13,06,32,17.20
2021,08,13,06,33,17.20
2021,08,13,06,34,17.20
2021,08,13,06,35,17.20
2021,08,13,06,36,17.20
2021,08,13,06,37,17.20
2021,08,13,06,38,17.20
2021,08,13,06,39,17.20
2021,08,13,06,40,17.20
2021,08,13,06,41,17.20
2021,08,13,06,42,17.20
2021,08,13,06,43,17.20
2021,08,13,06,44,17.20
2021,08,13,06,45,17.20
2021,08,13,06,46,17.20
2021,08,13,06,47,17.20
2021,08,13,06,48,17.20
2021,08,13,06,49,17.10
2021,08,13,06,50,17.10
2021,08,13,06,51,17.10
2021,08,13,06,52,17.10
2021,08,13,06,53,17.10
2021,08,13,06,54,17.10
2021,08,13,06,55,17.10
2021,08,13,06,56,17.10
2021,08,13,06,57,17.00
2021,08,13,06,58,17.00
2021,08,13,06,59,17.00
2021,08,13,07,00,17.00
2021,08,13,07,01,17.00
2021,08,13,07,02,17.10
2021,08,13,07,03,17.10
2021,08,13,07,04,17.10
2021,08,13,07,05,17.10
2021,08,13,07,06,17.10
2021,08,13,07,07,17.20
2021,08,13,07,08,17.20
2021,08,13,07,09,17.20
2021,08,13,07,10,17.30
2021,08,13,07,11,17.30
2021,08,13,07,12,17.30
2021,08,13,07,13,17.30
2021,08,13,07,14,17.30
2021,08,13,07,15,17.30
2021,08,13,07,16,17.30
2021,08,13,07,17,17.30
2021,08,13,07,18,17.30
2021,08,13,07,19,17.30
2021,08,13,07,20,17.40
2021,08,13,07,21,17.40
2021,08,13,07,22,17.40
2021,08,13,07,23,17.40
2021,08,13,07,24,17.40
2021,08,13,07,25,17.40
2021,08,13,07,26,17.40
2021,08,13,07,27,17.40
2021,08,13,07,28,17.40
2021,08,13,07,29,17.40
2021,08,13,07,30,17.40
2021,08,13,07,31,17.40
2021,08,13,07,32,17.40
2021,08,13,07,33,17.40
2021,08,13,07,34,17.40
2021,08,13,07,35,17.40
2021,08,13,07,36,17.40
2021,08,13,07,37,17.40
2021,08,13,07,38,17.40
2021,08,13,07,39,17.40
2021,08,13,07,40,17.40
2021,08,13,07,41,17.50
2021,08,13,07,42,17.50
2021,08,13,07,43,17.60
2021,08,13,07,44,17.60
2021,08,13,07,45,17.70
2021,08,13,07,46,17.70
2021,08,13,07,47,17.70
2021,08,13,07,48,17.80
2021,08,13,07,49,17.90
2021,08,13,07,50,17.90
2021,08,13,07,51,18.00
2021,08,13,07,52,18.10
2021,08,13,07,53,18.10
2021,08,13,07,54,18.10
2021,08,13,07,55,18.20
2021,08,13,07,56,18.20
2021,08,13,07,57,18.30
2021,08,13,07,58,18.30
2021,08,13,07,59,18.30
2021,08,13,08,00,18.40
2021,08,13,08,01,18.40
2021,08,13,08,02,18.50
2021,08,13,08,03,18.60
2021,08,13,08,04,18.70
2021,08,13,08,05,18.70
2021,08,13,08,06,18.80
2021,08,13,08,07,18.80
2021,08,13,08,08,18.90
2021,08,13,08,09,18.90
2021,08,13,08,10,19.00
2021,08,13,08,11,19.00
2021,08,13,08,12,19.10
2021,08,13,08,13,19.20
2021,08,13,08,14,19.20
2021,08,13,08,15,19.30
2021,08,13,08,16,19.30
2021,08,13,08,17,19.40
2021,08,13,08,18,19.50
2021,08,13,08,19,19.50
2021,08,13,08,20,19.50
2021,08,13,08,21,19.60
2021,08,13,08,22,19.60
2021,08,13,08,23,19.60
2021,08,13,08,24,19.70
2021,08,13,08,25,19.70
2021,08,13,08,26,19.70
2021,08,13,08,27,19.80
2021,08,13,08,28,19.80
2021,08,13,08,29,19.90
2021,08,13,08,30,19.90
2021,08,13,08,31,20.00
2021,08,13,08,32,20.10
2021,08,13,08,33,20.10
2021,08,13,08,34,20.20
2021,08,13,08,35,20.30
2021,08,13,08,36,20.40
2021,08,13,08,37,20.40
2021,08,13,08,38,20.50
2021,08,13,08,39,20.60
2021,08,13,08,40,20.70
2021,08,13,08,41,20.70
2021,08,13,08,42,20.80
2021,08,13,08,43,20.90
2021,08,13,08,44,20.90
2021,08,13,08,45,21.00
2021,08,13,08,46,21.00
2021,08,13,08,47,21.10
2021,08,13,08,48,21.10
2021,08,13,08,49,21.10
2021,08,13,08,50,21.10
2021,08,13,08,51,21.20
2021,08,13,08,52,21.20
2021,08,13,08,53,21.30
2021,08,13,08,54,21.40
2021,08,13,08,55,21.50
2021,08,13,08,56,21.50
2021,08,13,08,57,21.60
2021,08,13,08,58,21.70
2021,08,13,08,59,21.70
2021,08,13,09,00,21.80
2021,08,13,09,01,21.90
2021,08,13,09,02,21.90
2021,08,13,09,03,22.00
2021,08,13,09,04,22.10
2021,08,13,09,05,22.10
2021,08,13,09,06,22.20
2021,08,13,09,07,22.30
2021,08,13,09,08,22.30
2021,08,13,09,09,22.40
2021,08,13,09,10,22.50
2021,08,13,09,11,22.50
2021,08,13,09,12,22.60
2021,08,13,09,13,22.60
2021,08,13,09,14,22.60
2021,08,13,09,15,22.70
2021,08,13,09,16,22.70
2021,08,13,09,17,22.70
2021,08,13,09,18,22.70
2021,08,13,09,19,22.70
2021,08,13,09,20,22.80
2021,08,13,09,21,22.80
2021,08,13,09,22,22.80
2021,08,13,09,23,22.80
2021,08,13,09,24,22.90
2021,08,13,09,25,22.90
2021,08,13,09,26,23.00
2021,08,13,09,27,23.00
2021,08,13,09,28,23.10
2021,08,13,09,29,23.20
2021,08,13,09,30,23.30
2021,08,13,09,31,23.40
2021,08,13,09,32,23.50
2021,08,13,09,33,23.60
2021,08,13,09,34,23.80
2021,08,13,09,35,23.90
2021,08,13,09,36,24.00
2021,08,13,09,37,24.10
2021,08,13,09,38,24.20
2021,08,13,09,39,24.30
2021,08,13,09,40,24.30
2021,08,13,09,41,24.40
2021,08,13,09,42,24.40
2021,08,13,09,43,24.50
2021,08,13,09,44,24.60
2021,08,13,09,45,24.70
2021,08,13,09,46,24.80
2021,08,13,09,47,24.80
2021,08,13,09,48,24.90
2021,08,13,09,49,24.90
2021,08,13,09,50,24.90
2021,08,13,09,51,24.90
2021,08,13,09,52,25.00
2021,08,13,09,53,25.10
2021,08,13,09,54,25.10
2021,08,13,09,55,25.10
2021,08,13,09,56,25.20
2021,08,13,09,57,25.20
2021,08,13,09,58,25.20
2021,08,13,09,59,25.30
2021,08,13,10,00,25.30
2021,08,13,10,01,25.40
2021,08,13,10,02,25.50
2021,08,13,10,03,25.60
2021,08,13,10,04,25.70
2021,08,13,10,05,25.80
2021,08,13,10,06,25.90
2021,08,13,10,07,25.90
2021,08,13,10,08,26.00
2021,08,13,10,09,26.10
2021,08,13,10,10,26.10
2021,08,13,10,11,26.20
2021,08,13,10,12,26.30
2021,08,13,10,13,26.40
2021,08,13,10,14,26.40
2021,08,13,10,15,26.50
2021,08,13,10,16,26.60
2021,08,13,10,17,26.70
2021,08,13,10,18,26.80
2021,08,13,10,19,26.90
2021,08,13,10,20,26.90
2021,08,13,10,21,27.00
2021,08,13,10,22,27.10
2021,08,13,10,23,27.10
2021,08,13,10,24,27.20
2021,08,13,10,25,27.30
2021,08,13,10,26,27.30
2021,08,13,10,27,27.30
2021,08,13,10,28,27.30
2021,08,13,10,29,27.40
2021,08,13,10,30,27.40
2021,08,13,10,31,27.50
2021,08,13,10,32,27.50
2021,08,13,10,33,27.60
2021,08,13,10,34,27.60
2021,08,13,10,35,27.60
2021,08,13,10,36,27.70
2021,08,13,10,37,27.70
2021,08,13,10,38,27.80
2021,08,13,10,39,27.90
2021,08,13,10,40,27.90
2021,08,13,10,41,28.00
2021,08,13,10,42,28.10
2021,08,13,10,43,28.10
2021,08,13,10,44,28.20
2021,08,13,10,45,28.30
2021,08,13,10,46,28.30
2021,08,13,10,47,28.30
2021,08,13,10,48,28.40
2021,08,13,10,49,28.40
2021,08,13,10,50,28.40
2021,08,13,10,51,28.40
2021,08,13,10,52,28.40
2021,08,13,10,53,28.40
2021,08,13,10,54,28.40
2021,08,13,10,55,28.40
2021,08,13,10,56,28.40
2021,08,13,10,57,28.40
2021,08,13,10,58,28.40
2021,08,13,10,59,28.40
2021,08,13,11,00,28.40
2021,08,13,11,01,28.40
2021,08,13,11,02,28.40
2021,08,13,11,03,28.40
2021,08,13,11,04,28.40
2021,08,13,11,05,28.30
2021,08,13,11,06,28.30
2021,08,13,11,07,28.30
2021,08,13,11,08,28.30
2021,08,13,11,09,28.30
2021,08,13,11,10,28.40
2021,08,13,11,11,28.50
2021,08,13,11,12,28.50
2021,08,13,11,13,28.60
2021,08,13,11,14,28.70
2021,08,13,11,15,28.70
2021,08,13,11,16,28.80
2021,08,13,11,17,28.80
2021,08,13,11,18,28.80
2021,08,13,11,19,28.70
2021,08,13,11,20,28.70
2021,08,13,11,21,28.70
2021,08,13,11,22,28.80
2021,08,13,11,23,28.80
2021,08,13,11,24,28.80
2021,08,13,11,25,28.80
2021,08,13,11,26,28.80
2021,08,13,11,27,28.80
2021,08,13,11,28,28.80
2021,08,13,11,29,28.90
2021,08,13,11,30,28.90
2021,08,13,11,31,28.90
2021,08,13,11,32,29.00
2021,08,13,11,33,29.00
2021,08,13,11,34,29.10
2021,08,13,11,35,29.10
2021,08,13,11,36,29.20
2021,08,13,11,37,29.20
2021,08,13,11,38,29.30
2021,08,13,11,39,29.40
2021,08,13,11,40,29.40
2021,08,13,11,41,29.40
2021,08,13,11,42,29.40
2021,08,13,11,43,29.50
2021,08,13,11,44,29.50
2021,08,13,11,45,29.60
2021,08,13,11,46,29.60
2021,08,13,11,47,29.60
2021,08,13,11,48,29.60
2021,08,13,11,49,29.70
2021,08,13,11,50,29.70
2021,08,13,11,51,29.80
2021,08,13,11,52,29.90
2021,08,13,11,53,29.90
2021,08,13,11,54,29.90
2021,08,13,11,55,29.90
2021,08,13,11,56,29.90
2021,08,13,11,57,29.90
2021,08,13,11,58,29.80
2021,08,13,11,59,29.80
2021,08,13,12,00,29.70
2021,08,13,12,01,29.70
2021,08,13,12,02,29.70
2021,08,13,12,03,29.70
2021,08,13,12,04,29.70
2021,08,13,12,05,29.70
2021,08,13,12,06,29.70
2021,08,13,12,07,29.80
2021,08,13,12,08,29.80
2021,08,13,12,09,29.80
2021,08,13,12,10,29.80
2021,08,13,12,11,29.90
2021,08,13,12,12,29.90
2021,08,13,12,13,29.90
2021,08,13,12,14,29.90
2021,08,13,12,15,29.90
2021,08,13,12,16,30.00
2021,08,13,12,17,30.00
2021,08,13,12,18,30.10
2021,08,13,12,19,30.20
2021,08,13,12,20,30.30
2021,08,13,12,21,30.30
2021,08,13,12,22,30.30
2021,08,13,12,23,30.20
2021,08,13,12,24,30.10
2021,08,13,12,25,30.00
2021,08,13,12,26,29.90
2021,08,13,12,27,29.60
2021,08,13,12,28,29.50
2021,08,13,12,29,29.30
2021,08,13,12,30,29.10
2021,08,13,12,31,29.00
2021,08,13,12,32,28.70
2021,08,13,12,33,28.60
2021,08,13,12,34,28.40
2021,08,13,12,35,28.30
2021,08,13,12,36,28.10
2021,08,13,12,37,27.90
2021,08,13,12,38,27.80
2021,08,13,12,39,27.80
2021,08,13,12,40,27.80
2021,08,13,12,41,27.80
2021,08,13,12,42,27.90
2021,08,13,12,43,27.80
2021,08,13,12,44,27.70
2021,08,13,12,45,27.60
2021,08,13,12,46,27.40
2021,08,13,12,47,27.30
2021,08,13,12,48,27.20
2021,08,13,12,49,27.20
2021,08,13,12,50,27.20
2021,08,13,12,51,27.20
2021,08,13,12,52,27.20
2021,08,13,12,53,27.10
2021,08,13,12,54,27.10
2021,08,13,12,55,27.10
2021,08,13,12,56,27.10
2021,08,13,12,57,27.00
2021,08,13,12,58,26.80
2021,08,13,12,59,26.70
2021,08,13,13,00,26.70
2021,08,13,13,01,26.60
2021,08,13,13,02,26.60
2021,08,13,13,03,26.60
2021,08,13,13,04,26.60
2021,08,13,13,05,26.60
2021,08,13,13,06,26.60
2021,08,13,13,07,26.60
2021,08,13,13,08,26.60
2021,08,13,13,09,26.60
2021,08,13,13,10,26.50
2021,08,13,13,11,26.50
2021,08,13,13,12,26.40
2021,08,13,13,13,26.40
2021,08,13,13,14,26.30
2021,08,13,13,15,26.30
2021,08,13,13,16,26.30
2021,08,13,13,17,26.30
2021,08,13,13,18,26.30
2021,08,13,13,19,26.40
2021,08,13,13,20,26.40
2021,08,13,13,21,26.40
2021,08,13,13,22,26.50
2021,08,13,13,23,26.50
2021,08,13,13,24,26.60
2021,08,13,13,25,26.60
2021,08,13,13,26,26.60
2021,08,13,13,27,26.70
2021,08,13,13,28,26.70
2021,08,13,13,29,26.80
2021,08,13,13,30,26.90
2021,08,13,13,31,27.00
2021,08,13,13,32,27.20
2021,08,13,13,33,27.20
2021,08,13,13,34,27.30
2021,08,13,13,35,27.30
2021,08,13,13,36,27.30
2021,08,13,13,37,27.30
2021,08,13,13,38,27.40
2021,08,13,13,39,27.40
2021,08,13,13,40,27.40
2021,08,13,13,41,27.40
2021,08,13,13,42,27.40
2021,08,13,13,43,27.40
2021,08,13,13,44,27.40
2021,08,13,13,45,27.40
2021,08,13,13,46,27.40
2021,08,13,13,47,27.40
2021,08,13,13,48,27.50
2021,08,13,13,49,27.50
2021,08,13,13,50,27.50
2021,08,13,13,51,27.50
2021,08,13,13,52,27.50
2021,08,13,13,53,27.50
2021,08,13,13,54,27.50
2021,08,13,13,55,27.50
2021,08,13,13,56,27.50
2021,08,13,13,57,27.50
2021,08,13,13,58,27.50
2021,08,13,13,59,27.50
2021,08,13,14,00,27.60
2021,08,13,14,01,27.60
2021,08,13,14,02,27.60
2021,08,13,14,03,27.70
2021,08,13,14,04,27.70
2021,08,13,14,05,27.70
2021,08,13,14,06,27.80
2021,08,13,14,07,27.80
2021,08,13,14,08,27.90
2021,08,13,14,09,27.90
2021,08,13,14,10,27.90
2021,08,13,14,11,27.90
2021,08,13,14,12,27.90
2021,08,13,14,13,27.90
2021,08,13,14,14,27.90
2021,08,13,14,15,27.90
2021,08,13,14,16,27.90
2021,08,13,14,17,27.90
2021,08,13,14,18,27.90
2021,08,13,14,19,27.90
2021,08,13,14,20,27.90
2021,08,13,14,21,27.90
2021,08,13,14,22,27.80
2021,08,13,14,23,27.70
2021,08,13,14,24,27.60
2021,08,13,14,25,27.60
2021,08,13,14,26,27.50
2021,08,13,14,27,27.40
2021,08,13,14,28,27.40
2021,08,13,14,29,27.40
2021,08,13,14,30,27.40
2021,08,13,14,31,27.40
2021,08,13,14,32,27.40
2021,08,13,14,33,27.40
2021,08,13,14,34,27.50
2021,08,13,14,35,27.50
2021,08,13,14,36,27.60
2021,08,13,14,37,27.60
2021,08,13,14,38,27.60
2021,08,13,14,39,27.70
2021,08,13,14,40,27.70
2021,08,13,14,41,27.70
2021,08,13,14,42,27.70
2021,08,13,14,43,27.70
2021,08,13,14,44,27.80
2021,08,13,14,45,27.80
2021,08,13,14,46,27.80
2021,08,13,14,47,27.90
2021,08,13,14,48,27.90
2021,08,13,14,49,27.90
2021,08,13,14,50,27.90
2021,08,13,14,51,27.90
2021,08,13,14,52,27.90
2021,08,13,14,53,27.90
2021,08,13,14,54,28.00
2021,08,13,14,55,28.00
2021,08,13,14,56,28.00
2021,08,13,14,57,28.10
2021,08,13,14,58,28.10
2021,08,13,14,59,28.10
2021,08,13,15,00,28.10
2021,08,13,15,01,28.10
2021,08,13,15,02,28.00
2021,08,13,15,03,28.00
2021,08,13,15,04,28.00
2021,08,13,15,05,28.00
2021,08,13,15,06,28.00
2021,08,13,15,07,27.90
2021,08,13,15,08,27.90
2021,08,13,15,09,27.80
2021,08,13,15,10,27.80
2021,08,13,15,11,27.70
2021,08,13,15,12,27.70
2021,08,13,15,13,27.60
2021,08,13,15,14,27.60
2021,08,13,15,15,27.60
2021,08,13,15,16,27.60
2021,08,13,15,17,27.60
2021,08,13,15,18,27.60
2021,08,13,15,19,27.60
2021,08,13,15,20,27.60
2021,08,13,15,21,27.60
2021,08,13,15,22,27.50
2021,08,13,15,23,27.40
2021,08,13,15,24,27.30
2021,08,13,15,25,27.20
2021,08,13,15,26,27.10
2021,08,13,15,27,27.10
2021,08,13,15,28,27.10
2021,08,13,15,29,27.00
2021,08,13,15,30,27.00
2021,08,13,15,31,27.00
2021,08,13,15,32,27.00
2021,08,13,15,33,27.10
2021,08,13,15,34,27.10
2021,08,13,15,35,27.10
2021,08,13,15,36,27.10
2021,08,13,15,37,27.10
2021,08,13,15,38,27.10
2021,08,13,15,39,27.10
2021,08,13,15,40,27.20
2021,08,13,15,41,27.20
2021,08,13,15,42,27.20
2021,08,13,15,43,27.20
2021,08,13,15,44,27.30
2021,08,13,15,45,27.30
2021,08,13,15,46,27.30
2021,08,13,15,47,27.40
2021,08,13,15,48,27.40
2021,08,13,15,49,27.50
2021,08,13,15,50,27.50
2021,08,13,15,51,27.60
2021,08,13,15,52,27.60
2021,08,13,15,53,27.60
2021,08,13,15,54,27.70
2021,08,13,15,55,27.70
2021,08,13,15,56,27.70
2021,08,13,15,57,27.70
2021,08,13,15,58,27.70
2021,08,13,15,59,27.70
2021,08,13,16,00,27.60
2021,08,13,16,01,27.50
2021,08,13,16,02,27.40
2021,08,13,16,03,27.30
2021,08,13,16,04,27.20
2021,08,13,16,05,27.20
2021,08,13,16,06,27.10
2021,08,13,16,07,27.10
2021,08,13,16,08,27.10
2021,08,13,16,09,27.10
2021,08,13,16,10,27.10
2021,08,13,16,11,27.10
2021,08,13,16,12,27.10
2021,08,13,16,13,27.20
2021,08,13,16,14,27.20
2021,08,13,16,15,27.30
2021,08,13,16,16,27.30
2021,08,13,16,17,27.40
2021,08,13,16,18,27.50
2021,08,13,16,19,27.60
2021,08,13,16,20,27.70
2021,08,13,16,21,27.80
2021,08,13,16,22,27.80
2021,08,13,16,23,27.90
2021,08,13,16,24,27.90
2021,08,13,16,25,28.00
2021,08,13,16,26,28.00
2021,08,13,16,27,28.10
2021,08,13,16,28,28.10
2021,08,13,16,29,28.20
2021,08,13,16,30,28.20
2021,08,13,16,31,28.20
2021,08,13,16,32,28.20
2021,08,13,16,33,28.20
2021,08,13,16,34,28.20
2021,08,13,16,35,28.20
2021,08,13,16,36,28.10
2021,08,13,16,37,28.00
2021,08,13,16,38,27.90
2021,08,13,16,39,27.80
2021,08,13,16,40,27.70
2021,08,13,16,41,27.60
2021,08,13,16,42,27.50
2021,08,13,16,43,27.50
2021,08,13,16,44,27.40
2021,08,13,16,45,27.40
2021,08,13,16,46,27.40
2021,08,13,16,47,27.40
2021,08,13,16,48,27.40
2021,08,13,16,49,27.40
2021,08,13,16,50,27.40
2021,08,13,16,51,27.40
2021,08,13,16,52,27.30
2021,08,13,16,53,27.30
2021,08,13,16,54,27.30
2021,08,13,16,55,27.30
2021,08,13,16,56,27.30
2021,08,13,16,57,27.30
2021,08,13,16,58,27.30
2021,08,13,16,59,27.30
2021,08,13,17,00,27.30
2021,08,13,17,01,27.40
2021,08,13,17,02,27.40
2021,08,13,17,03,27.40
2021,08,13,17,04,27.40
2021,08,13,17,05,27.40
2021,08,13,17,06,27.40
2021,08,13,17,07,27.40
2021,08,13,17,08,27.30
2021,08,13,17,09,27.30
2021,08,13,17,10,27.30
2021,08,13,17,11,27.30
2021,08,13,17,12,27.30
2021,08,13,17,13,27.30
2021,08,13,17,14,27.30
2021,08,13,17,15,27.30
2021,08,13,17,16,27.30
2021,08,13,17,17,27.30
2021,08,13,17,18,27.30
2021,08,13,17,19,27.30